Stations météo

réclame
Mon MeteoGroup
Catania/Sigonella, Italie (16459): Température de l'air & dewpoint: 12.02.2019 20:00:00 - 18.02.2019 20:00:00 (CET)Catania/Sigonella, Italie (16459): Vitesse du vent: 12.02.2019 20:00:00 - 18.02.2019 20:00:00 (CET)Catania/Sigonella, Italie (16459): Direction du vent: 12.02.2019 20:00:00 - 18.02.2019 20:00:00 (CET)Catania/Sigonella, Italie (16459): reduced air pressure: 12.02.2019 20:00:00 - 18.02.2019 20:00:00 (CET)Catania/Sigonella, Italie (16459): visibility: 12.02.2019 20:00:00 - 18.02.2019 20:00:00 (CET)
Date & Time tt [°C] td [°C] ff [km/h] ff [knt] dd ppp [hPa] vv [km]
18.02.2019 20:00:00 - - - - - - -
18.02.2019 19:00:00 9,0 7,4 4 2 NNW 1024,4 10
18.02.2019 18:00:00 10,0 7,0 8 4 ENE - 10
18.02.2019 17:00:00 12,0 8,0 18 10 E - 10
18.02.2019 16:00:00 13,0 6,8 22 12 ENE 1024,3 10
18.02.2019 15:00:00 17,0 3,0 5 3 NW - 10
18.02.2019 14:00:00 16,0 3,0 4 2 WSW - 10
18.02.2019 13:00:00 16,6 4,6 9 5 WSW 1025,9 10
18.02.2019 12:00:00 15,0 6,0 13 7 WSW - 10
18.02.2019 11:00:00 13,0 8,0 11 6 W - 9
18.02.2019 10:00:00 10,6 7,7 11 6 W 1027,5 8
18.02.2019 09:00:00 6,0 5,0 9 5 W - 8
18.02.2019 08:00:00 3,0 3,0 9 5 W - 7
18.02.2019 07:00:00 1,2 1,2 9 5 W 1027,7 5
18.02.2019 06:00:00 2,0 2,0 8 4 W - 10
18.02.2019 05:00:00 2,0 2,0 9 5 W - 10
18.02.2019 04:00:00 2,2 2,2 9 5 W 1027,7 10
18.02.2019 03:00:00 2,0 2,0 9 5 W - 10
18.02.2019 02:00:00 3,0 3,0 11 6 W - 10
18.02.2019 01:00:00 2,0 2,0 9 5 W 1028,4 10
18.02.2019 00:00:00 4,0 4,0 8 4 W - 10
17.02.2019 23:00:00 4,0 4,0 5 3 WSW - 10
17.02.2019 22:00:00 5,2 4,9 4 2 S 1028,5 10
17.02.2019 21:00:00 7,0 5,0 5 3 SW - 10
17.02.2019 20:00:00 9,0 4,0 9 5 WNW - 10
17.02.2019 19:00:00 10,0 4,8 8 4 NNW 1028,1 10
17.02.2019 18:00:00 10,0 3,0 4 2 SSE - 10
17.02.2019 17:00:00 14,0 1,0 5 3 ESE - 10
17.02.2019 16:00:00 14,8 1,4 5 3 ESE 1028,0 15
17.02.2019 15:00:00 15,0 2,0 5 3 ESE - 10
17.02.2019 14:00:00 16,0 2,0 8 4 W - 10
17.02.2019 13:00:00 15,2 1,7 15 8 WSW 1029,0 15
17.02.2019 12:00:00 15,0 3,0 9 5 SW - 10
17.02.2019 11:00:00 13,0 5,0 11 6 W - 10
17.02.2019 10:00:00 10,0 5,6 11 6 W 1031,0 15
17.02.2019 09:00:00 6,0 4,0 9 5 W - 10
17.02.2019 08:00:00 4,0 4,0 8 4 W - 10
17.02.2019 07:00:00 1,2 1,2 8 4 W 1030,1 10
17.02.2019 06:00:00 2,0 2,0 9 5 W - 10
17.02.2019 05:00:00 2,0 2,0 13 7 W - 10
17.02.2019 04:00:00 2,2 2,2 8 4 WSW 1029,9 10
17.02.2019 03:00:00 4,0 4,0 9 5 WSW - 10
17.02.2019 02:00:00 4,0 4,0 8 4 W - 10
17.02.2019 01:00:00 2,2 2,2 11 6 W 1031,1 10
17.02.2019 00:00:00 3,0 3,0 4 2 W - 10
16.02.2019 23:00:00 4,0 4,0 4 2 WNW - 10
16.02.2019 22:00:00 5,4 4,7 5 3 W 1030,5 10
16.02.2019 21:00:00 7,0 5,0 9 5 WNW - 10
16.02.2019 20:00:00 9,0 6,0 5 3 W - 10
16.02.2019 19:00:00 9,2 5,0 11 6 NE 1028,9 12
16.02.2019 18:00:00 9,0 5,0 11 6 S - 10
16.02.2019 17:00:00 10,0 5,0 11 6 SE - 10
16.02.2019 16:00:00 10,6 3,4 15 8 E 1028,2 12
16.02.2019 15:00:00 11,0 2,0 18 10 E - 10
16.02.2019 14:00:00 12,0 1,0 22 12 E - 10
16.02.2019 13:00:00 12,2 0,9 24 13 E 1028,1 14
16.02.2019 12:00:00 12,0 -1,0 28 15 ENE - 10
16.02.2019 11:00:00 12,0 2,0 16 9 NE - 10
16.02.2019 10:00:00 10,8 5,1 8 4 W 1028,2 15
16.02.2019 09:00:00 8,0 5,0 8 4 W - 10
16.02.2019 08:00:00 5,0 5,0 9 5 NNW - 10
16.02.2019 07:00:00 2,8 2,8 4 2 SSW 1026,6 6
16.02.2019 06:00:00 4,0 3,0 9 5 W - 10
16.02.2019 05:00:00 5,0 4,0 8 4 N - 10
16.02.2019 04:00:00 5,4 3,3 8 4 E 1025,7 13
16.02.2019 03:00:00 4,0 3,0 9 5 SE - 10
16.02.2019 02:00:00 5,0 5,0 5 3 NE - 10
16.02.2019 01:00:00 5,6 5,6 8 4 NNW 1025,0 13
16.02.2019 00:00:00 5,0 5,0 5 3 W - 10
15.02.2019 23:00:00 6,0 6,0 8 4 SSW - 10
15.02.2019 22:00:00 6,6 6,6 2 1 N 1025,1 10
15.02.2019 21:00:00 7,0 7,0 26 14 ENE - 6
15.02.2019 20:00:00 7,0 6,0 22 12 E - 10
15.02.2019 19:00:00 8,8 8,1 22 12 E 1023,9 10
15.02.2019 18:00:00 9,0 8,0 22 12 E - 10
15.02.2019 17:00:00 13,0 6,0 22 12 E - 10
15.02.2019 16:00:00 13,8 1,1 24 13 E 1022,7 10
15.02.2019 15:00:00 14,0 3,0 26 14 E - 10
15.02.2019 14:00:00 15,0 2,0 15 8 ESE - 10
15.02.2019 13:00:00 14,8 3,9 9 5 SSE 1024,4 10
15.02.2019 12:00:00 13,0 4,0 4 2 SSE - 10
15.02.2019 11:00:00 12,0 5,0 11 6 E - 10
15.02.2019 10:00:00 9,8 6,2 4 2 NNW 1026,6 10
15.02.2019 09:00:00 8,0 5,0 13 7 S - 10
15.02.2019 08:00:00 4,0 4,0 5 3 N - 10
15.02.2019 07:00:00 2,8 2,8 8 4 ESE 1026,5 10
15.02.2019 06:00:00 3,0 2,0 4 2 SSE - 10
15.02.2019 05:00:00 4,0 2,0 4 2 W - 10
15.02.2019 04:00:00 6,0 4,0 5 3 E 1026,7 10
15.02.2019 03:00:00 5,0 3,0 18 10 E - 10
15.02.2019 02:00:00 3,0 2,0 8 4 W - 10
15.02.2019 01:00:00 1,2 1,2 8 4 W 1027,7 10
15.02.2019 00:00:00 2,0 1,0 8 4 W - 10
14.02.2019 23:00:00 3,0 2,0 5 3 SSW - 10
14.02.2019 22:00:00 5,6 -0,2 11 6 W 1027,8 10
14.02.2019 21:00:00 5,0 2,0 13 7 WNW - 10
14.02.2019 20:00:00 6,0 4,0 11 6 W - 10
14.02.2019 19:00:00 7,4 3,5 4 2 NNE 1028,3 16
14.02.2019 18:00:00 9,0 2,0 5 3 ESE - 10
14.02.2019 17:00:00 10,0 1,0 13 7 ESE - 10
14.02.2019 16:00:00 12,0 -0,8 24 13 E 1028,0 20
14.02.2019 15:00:00 13,0 -1,0 21 11 E - 10
14.02.2019 14:00:00 14,0 -1,0 13 7 E - 10
14.02.2019 13:00:00 14,8 -0,5 5 3 SSE 1029,0 20
14.02.2019 12:00:00 13,0 0,0 8 4 SW - 10
14.02.2019 11:00:00 12,0 1,0 11 6 WSW - 10
14.02.2019 10:00:00 10,6 1,2 16 9 WSW 1029,3 20
14.02.2019 09:00:00 8,0 1,0 13 7 W - 10
14.02.2019 08:00:00 1,0 -1,0 8 4 WNW - 10
14.02.2019 07:00:00 1,0 -0,8 11 6 W 1029,4 12
14.02.2019 06:00:00 2,0 -1,0 5 3 WNW - 10
14.02.2019 05:00:00 3,0 -1,0 16 9 SSW - 10
14.02.2019 04:00:00 3,4 -0,2 15 8 SSW 1027,7 10
14.02.2019 03:00:00 3,0 1,0 13 7 S - 10
14.02.2019 02:00:00 5,0 -2,0 13 7 WSW - 10
14.02.2019 01:00:00 6,0 -2,4 8 4 NW 1028,5 10
14.02.2019 00:00:00 7,0 -4,0 16 9 NNE - 10
13.02.2019 23:00:00 7,0 -5,0 16 9 E - 10
13.02.2019 22:00:00 8,0 -4,1 18 10 E 1027,2 10
13.02.2019 21:00:00 8,0 -6,0 4 2 N - 10
13.02.2019 20:00:00 8,0 -6,0 18 10 N - 10
13.02.2019 19:00:00 8,0 -6,5 28 15 NNW 1026,6 10
13.02.2019 18:00:00 8,0 -6,0 34 18 WSW - 10
13.02.2019 17:00:00 8,0 -6,0 16 9 ESE - 10
13.02.2019 16:00:00 10,4 -5,6 31 17 WNW 1023,4 10
13.02.2019 15:00:00 11,0 -3,0 24 13 W - 10
13.02.2019 14:00:00 11,0 -4,0 29 16 E - 10
13.02.2019 13:00:00 11,0 -3,1 22 12 W 1024,6 15
13.02.2019 12:00:00 11,0 -3,0 28 15 ENE - 10
13.02.2019 11:00:00 11,0 -3,0 34 18 W - 10
13.02.2019 10:00:00 8,6 -3,6 18 10 NE 1025,8 10
13.02.2019 09:00:00 9,0 -3,0 9 5 S - 10
13.02.2019 08:00:00 7,0 -4,0 42 23 WNW - 10
13.02.2019 07:00:00 6,0 -5,0 5 3 ESE 1025,0 12
13.02.2019 06:00:00 7,0 -6,0 11 6 NNW - 10
13.02.2019 05:00:00 7,0 -4,0 11 6 NE - 10
13.02.2019 04:00:00 7,4 -4,0 34 18 WSW 1022,7 10
13.02.2019 03:00:00 6,0 -5,0 15 8 W - 10
13.02.2019 02:00:00 6,0 -5,0 15 8 N - 10
13.02.2019 01:00:00 7,4 -5,7 22 12 N 1022,4 10
13.02.2019 00:00:00 8,0 -5,0 26 14 W - 10
12.02.2019 23:00:00 8,0 -1,0 26 14 W - 10
12.02.2019 22:00:00 8,0 -1,8 18 10 WNW 1022,6 10
12.02.2019 21:00:00 8,0 -2,0 35 19 W - 10
12.02.2019 20:00:00 9,0 -1,0 28 15 NW - 10

tt = Température de l'air
td = dewpoint
ff = Vitesse du vent
dd = Direction du vent
ppp = reduced air pressure
vv = visibility

stations d'obs. à proximité